Youngstown, OH (44501)

6:15 AM EST on February 10, 2016 (GMT -0500)
Fred Martin Computers | | Change Station
CLOSE
Current Station
Personal Weather Station
Location: Youngstown, OH
Elevation: 1004 ft
Nearby Weather Stations

Elev 1004 ft 41.05 °N, 80.69 °W | Updated 1 second ago

Snow
Snow
22.0 °F
Feels Like 22 °F
N
1.0
Wind Variable Wind from SW
Gusts 4.0 mph

Today
High -- | Low -- °F
--% Chance of Precip.
Yesterday
High -- | Low -- °F
Precip. -- in
Pressure 29.75 in
Visibility 6.0 miles
Clouds Overcast 1600 ft
Windchill 22 °F
Dew Point 17 °F
Humidity 82%
Rainfall 0.00 in
Snow Depth Not available.
7:24 AM 5:50 PM
Waxing Crescent, 5% visible
METAR KYNG 101051Z 25016KT 6SM -SN OVC016 M06/M08 A2971 RMK AO2 SLP074 DRSN P0001 T10561083
Pressure 29.75 in
Visibility 6.0 miles
Clouds Overcast 1600 ft
Windchill 22 °F
Dew Point 17 °F
Humidity 82%
Rainfall 0.00 in
Snow Depth Not available.
7:24 AM 5:50 PM
Waxing Crescent, 5% visible
METAR KYNG 101051Z 25016KT 6SM -SN OVC016 M06/M08 A2971 RMK AO2 SLP074 DRSN P0001 T10561083

10-Day Weather Forecast

Almanac

Astronomy

Feb. 10, 2016 Rise Set
Actual Time
Civil Twilight
Nautical Twilight
Astronomical Twilight
Moon
Length of Visible Light
Length of Day
Tomorrow will be .
, % of the Moon is Illuminated

Today's Extremes

State Highs State Lows

Community

WunderPhotos

Upload Photos

1,891,830 photos uploaded!

WunderBlog® & News

Nearby

Air Quality

  Air Quality AQ Index Pollutant
Not available.

Snow Depth

Station Depth Elevation

Earthquake Activity

City Distance Mag. Time & Date
Minimum magnitude displayed is 2.5.

Coastal Water Temperatures

Place Temperature

Stations

Nearby Weather Stations

Station Location Temp. Windchill Dew Point Humidity Wind Precip. Elev Updated Type
                   

Watches & Warnings

There are currently no watches in effect.